SCP
0 0 0 0 0 0 0 0 0 0 0 0 0 0 0 0 0 0 0 0 0 0 0 0 0 0 0 0 0 0 0 0 0 0 0 0 0 0 0 0 0 0 0 0
0 0 0 0 0 0 0 0 0 0 0 0 0 0 0 0 0 0 0 0 0 0 0 0 0 0 0 0 0 0 0 0 0 0 0 0 0 0 0 0 0 0 0 0
0 0 0 0 0 0 0 0 0 0 0 0 0 0 0 0 0 0 0 0 0 0 0 0 0 0 0 0 0 0 0 0 0 0 0 0 0 0 0 0 0 0 0 0
0 0 0 0 0 0 0 0 0 0 0 0 0 0 0 0 0 0 0 0 0 0 0 0 0 0 0 0 0 0 0 0 0 0 0 0 0 0 0 0 0 0 0 0
0 0 0 0 0 0 0 0 0 0 0 0 0 0 0 0 0 0 0 0 0 0 0 0 0 0 0 0 0 0 0 0 0 0 0 0 0 0 0 0 0 0 0 0
0 0 0 0 0 0 0 0 0 0 0 0 0 0 0 0 0 0 0 0 0 0 0 0 0 0 0 0 0 0 0 0 0 0 0 0 0 0 0 0 0 0 0 0
0 0 0 0 0 0 0 0 0 0 0 0 0 0 0 0 0 0 0 0 0 0 0 0 0 0 0 0 0 0 0 0 0 0 0 0 0 0 0 0 0 0 0 0
0 0 0 0 0 0 0 0 0 0 0 0 0 0 0 0 0 0 0 0 0 0 0 0 0 0 0 0 0 0 0 0 0 0 0 0 0 0 0 0 0 0 0 0
0 0 0 0 0 0 0 0 0 0 0 0 0 0 0 0 0 0 0 0 0 0 0 0 0 0 0 0 0 0 0 0 0 0 0 0 0 0 0 0 0 0 0 0
0 0 0 0 0 0 0 0 0 0 0 0 0 0 0 0 0 0 0 0 0 0 0 0 0 0 0 0 0 0 0 0 0 0 0 0 0 0 0 0 0 0 0 0
0 0 0 0 0 0 0 0 0 0 0 0 0 0 0 0 0 0 0 0 0 0 0 0 0 0 0 0 0 0 0 0 0 0 0 0 0 0 0 0 0 0 0 0
0 0 0 0 0 0 0 0 0 0 0 0 0 0 0 0 0 0 0 0 0 0 0 0 0 0 0 0 0 0 0 0 0 0 0 0 0 0 0 0 0 0 0 0
0 0 0 0 0 0 0 0 0 0 0 0 0 0 0 0 0 0 0 0 0 0 0 0 0 0 0 0 0 0 0 0 0 0 0 0 0 0 0 0 0 0 0 0
0 0 0 -0 -0 0 0 0 0 0 0 0 0 0 0 0 0 0 0 0 0 0 0 0 0 0 0 0 0 0 0 0 0 0 0 0 0 0 0 0 0 0 0 0
-0 -0 -0 -0 -0 -0 0 0 0 0 0 0 0 0 0 0 0 0 0 0 0 0 0 0 0 0 0 0 0 0 0 0 0 0 0 0 0 0 0 0 0 0 0 0
-0 -0 -0 -0 -0 -0 0 0 0 0 0 0 0 0 0 0 0 0 0 0 0 0 0 0 0 0 0 0 0 0 0 0 0 0 0 0 0 0 0 0 0 0 0 0
0 -0 -0 -0 -0 0 0 0 0 0 0 0 0 0 0 0 0 0 0 0 0 0 0 0 0 0 0 0 0 0 0 0 0 0 0 0 0 0 0 0 0 0 0 0
0 0 0 0 0 0 0 0 0 0 0 0 0 0 0 0 0 0 0 0 0 0 0 0 0 0 0 0 0 0 0 0 0 0 0 0 0 0 0 0 0 0 0 0
0 0 0 0 0 0 0 0 0 0 0 0 0 0 0 0 0 0 0 0 0 0 0 0 0 0 0 0 0 0 0 0 0 0 0 0 0 0 0 0 0 0 0 0
0 0 0 0 0 0 0 0 0 0 0 0 0 0 0 0 0 0 0 0 0 0 0 0 0 0 0 0 0 0 0 0 0 0 0 0 0 0 0 0 0 0 0 0
0 0 0 0 0 0 0 0 0 0 0 0 0 0 0 0 0 0 0 0 0 0 0 0 0 0 0 0 0 0 0 0 0 0 0 0 0 0 0 0 0 0 0 0
0 0 0 0 0 0 0 0 0 0 0 0 0 0 0 0 0 0 0 0 0 0 0 0 0 0 0 0 0 0 0 0 0 0 0 0 0 0 0 0 0 0 0 0
0 0 0 0 0 0 0 0 0 0 0 0 0 0 0 0 0 0 0 0 0 0 0 0 0 0 0 0 0 0 0 0 0 0 0 0 0 0 0 0 0 0 0 0
0 0 0 0 0 0 0 0 0 0 0 0 0 0 0 0 0 0 0 0 0 0 0 0 0 0 0 0 0 0 0 0 0 0 0 0 0 0 0 0 0 0 0 0
0 0 0 0 0 0 0 0 0 0 0 0 0 0 0 0 0 0 0 0 0 0 0 0 0 0 0 0 0 0 0 0 0 0 0 0 0 0 0 0 0 0 0 0
0 0 0 0 0 0 0 0 0 0 0 0 0 0 0 0 0 0 0 0 0 0 0 0 0 0 0 0 0 0 0 0 0 0 0 0 0 0 0 0 0 0 0 0
0 0 0 0 0 0 0 0 0 0 0 0 0 0 0 0 0 0 0 0 0 0 0 0 0 0 0 0 0 0 0 0 0 0 0 0 0 0 0 0 0 0 0 0
Wind_Speed
7 6 7 9 9 9 11 12 12 11 11 9 7 6 5 4 4 3 3 3 3 2 2 2 2 2 2 2 2 2 2 3 4 4 4 4 4 4 4 4 4 4 4 5
7 6 7 10 11 11 11 11 12 12 12 7 6 5 5 5 4 4 4 4 4 3 3 3 2 3 3 3 2 3 3 3 3 4 4 4 4 4 4 3 3 4 4 4
7 4 8 10 9 10 9 9 10 12 9 6 6 6 6 5 5 4 4 4 4 4 4 4 3 3 3 3 3 3 3 3 4 4 4 4 4 4 3 4 4 4 4 4
5 6 10 2 1 4 7 9 8 9 8 6 6 5 5 5 5 5 4 4 5 5 5 4 4 3 3 3 3 3 4 4 4 4 4 4 4 4 4 4 4 4 4 4
5 7 8 5 3 4 6 7 6 7 7 6 3 5 5 4 4 5 5 5 5 5 4 4 3 3 3 3 3 3 3 4 4 4 4 4 5 4 4 4 4 4 4 4
7 8 7 2 1 2 5 7 2 4 5 4 4 6 4 2 4 5 4 4 4 4 3 3 3 3 3 3 3 3 4 4 4 4 5 5 5 5 4 4 4 4 4 4
10 9 7 1 2 3 6 3 2 4 5 4 5 5 4 3 4 3 3 3 3 3 3 3 3 3 3 3 3 3 3 3 3 4 5 5 4 4 4 4 4 4 4 4
8 9 6 3 3 5 5 5 4 5 5 4 5 4 4 3 3 3 2 2 2 2 2 2 2 3 3 3 3 2 2 3 3 3 3 3 4 4 4 4 4 4 4 4
6 5 3 4 5 4 5 6 5 5 5 4 5 5 4 4 4 3 3 2 2 2 2 2 2 3 3 3 3 3 2 2 2 3 3 4 4 4 4 4 4 4 3 3
8 8 7 7 7 6 6 6 6 6 6 5 6 5 5 4 4 4 3 3 3 3 3 2 2 3 3 3 3 3 3 3 3 3 2 3 3 3 4 4 4 4 4 4
10 8 7 7 7 6 6 6 6 6 6 6 5 5 5 5 4 4 3 3 3 3 3 3 3 3 2 2 3 3 3 3 3 3 3 3 3 2 4 3 3 4 4 4
8 7 6 6 5 7 7 7 7 6 6 6 5 5 5 5 4 4 4 3 3 4 4 3 3 3 2 3 3 3 2 2 2 2 2 2 3 2 1 3 2 4 4 4
9 7 7 8 8 8 8 8 7 7 6 6 5 5 5 5 4 4 4 4 4 4 5 4 3 3 3 3 3 3 3 3 2 2 2 3 2 3 2 2 2 3 3 3
8 7 9 9 8 8 7 7 6 6 6 5 4 4 4 4 5 5 5 5 4 5 4 4 4 4 3 3 3 4 3 3 3 3 3 3 3 3 3 3 2 2 2 3
10 10 10 8 8 7 6 5 6 6 5 5 4 4 5 5 5 5 5 4 4 4 4 4 4 4 3 3 3 4 3 2 3 3 2 2 2 3 3 3 3 2 2 2
8 8 8 9 9 8 7 7 7 6 6 5 5 5 5 5 5 5 4 4 4 5 5 5 5 4 4 3 3 3 3 3 3 3 2 2 2 2 2 2 3 2 2 2
8 9 9 9 9 9 8 8 7 7 6 6 6 5 5 5 5 5 4 4 5 5 5 5 5 4 3 4 4 3 3 3 3 3 3 3 2 2 2 2 2 2 2 1
10 10 9 9 8 8 8 8 7 7 6 5 5 5 5 5 5 5 5 4 5 5 4 4 4 3 3 4 3 3 3 2 3 3 3 3 2 2 2 2 2 2 1 1
7 7 7 7 7 7 7 7 7 6 6 5 5 6 6 6 5 5 4 5 5 5 4 4 3 4 4 4 4 3 3 3 3 3 3 3 3 3 2 2 2 2 1 1
6 5 5 5 6 6 6 6 6 6 5 5 5 5 6 6 5 5 5 5 5 4 4 4 4 4 4 4 3 3 3 4 4 3 3 3 3 3 2 2 2 2 2 1
5 5 5 5 5 6 6 6 5 5 5 5 6 6 6 6 5 5 5 5 5 4 4 4 4 3 3 2 3 3 3 3 3 3 3 3 3 3 3 3 2 2 2 1
4 4 5 5 5 5 4 4 5 5 5 5 6 6 6 6 6 6 6 4 3 3 3 3 3 3 2 3 3 3 3 3 3 3 3 3 3 3 3 3 2 2 1 1
4 4 4 4 4 4 3 3 4 4 4 5 6 6 6 5 5 5 5 3 3 3 3 3 3 3 4 3 3 3 3 3 3 3 3 3 3 3 3 3 2 2 2 2
4 3 3 3 2 3 3 3 3 3 4 4 5 5 5 4 4 4 3 3 3 4 3 3 3 4 4 3 3 3 3 3 3 2 2 2 2 2 2 2 2 2 2 2
3 3 2 2 3 3 3 2 2 2 3 3 4 4 4 4 4 3 3 3 3 3 3 3 4 4 3 3 3 3 3 3 3 2 3 2 2 2 2 2 2 2 2 2
3 2 2 3 2 2 2 2 2 2 2 2 2 2 2 2 3 3 3 3 3 3 3 2 3 4 3 2 3 3 2 2 3 2 2 2 3 3 3 3 3 2 2 2
3 2 2 2 2 2 2 2 2 2 2 2 2 2 2 2 2 2 3 2 2 2 2 2 2 2 2 2 2 2 2 2 2 2 2 2 2 2 3 3 2 2 2 2
Wind_Direction
272 281 273 270 263 249 249 261 267 271 271 279 278 272 271 264 253 259 266 270 271 277 286 283 298 303 301 292 279 258 241 232 223 217 214 215 219 218 219 226 232 229 227 226
255 258 264 267 262 253 250 255 259 265 268 277 281 273 263 258 247 252 263 269 274 277 282 280 290 289 284 282 273 265 250 243 227 220 215 214 215 215 216 217 228 229 230 231
257 257 268 260 253 243 239 244 252 259 268 269 265 263 264 259 249 258 274 281 277 277 278 281 276 278 280 281 273 268 262 254 237 224 217 215 210 206 212 218 224 231 231 234
263 254 251 284 17 259 255 258 256 264 273 271 276 280 273 263 260 275 288 290 288 286 283 283 280 276 274 270 263 260 262 259 251 230 220 217 214 211 219 225 225 233 233 233
245 257 268 260 239 239 255 265 262 263 270 266 275 275 262 257 270 287 296 298 298 294 287 283 281 271 263 263 262 256 255 257 253 239 223 221 220 218 222 226 227 233 235 231
239 255 264 283 109 272 268 257 252 276 278 259 250 264 280 284 285 292 299 306 304 296 289 283 286 275 261 262 263 268 272 267 260 248 227 223 224 222 224 228 229 233 235 231
241 253 263 314 130 217 248 312 352 289 283 255 259 298 330 313 294 297 302 306 303 294 288 288 283 269 263 270 279 286 285 280 268 256 237 225 221 218 218 227 235 237 236 235
235 245 249 133 179 240 303 339 306 291 284 270 283 301 304 297 287 283 285 291 292 286 298 300 282 273 275 285 298 296 285 276 267 258 243 223 217 219 221 221 229 237 237 236
242 261 316 218 242 282 300 293 294 289 289 278 276 281 281 280 279 272 269 272 273 271 289 297 294 291 294 303 298 287 276 275 270 260 247 229 219 215 219 222 224 232 236 239
255 257 266 259 257 268 277 285 290 285 279 273 274 275 273 274 277 275 270 270 272 271 276 287 294 288 291 293 283 277 278 274 264 252 248 235 225 222 220 223 227 232 236 237
254 264 267 253 252 263 275 283 284 280 270 270 269 268 269 272 272 272 273 271 268 268 271 278 282 285 290 281 272 271 270 267 262 252 249 251 236 235 237 239 248 246 241 240
252 248 256 267 270 266 266 271 272 271 270 264 256 257 262 267 268 266 266 265 265 268 271 275 277 282 281 270 264 261 265 269 266 253 241 243 242 222 208 240 268 270 272 271
260 267 273 280 282 271 267 270 269 265 263 262 255 252 255 264 266 265 262 259 258 263 268 270 273 275 275 261 257 255 260 265 258 253 239 233 236 236 230 218 218 235 238 252
247 253 262 264 270 270 269 270 268 264 261 258 255 252 253 260 268 266 262 263 263 261 261 263 266 272 273 261 259 262 259 262 260 250 242 236 235 238 235 236 237 224 201 209
244 248 256 266 267 264 262 257 255 254 254 255 252 248 248 252 262 271 273 267 261 259 260 261 266 274 271 253 249 259 264 262 257 253 243 237 235 234 233 230 236 234 222 187
244 248 249 253 256 254 249 247 249 252 251 251 252 251 251 254 261 269 272 263 257 258 259 258 261 268 265 250 246 249 254 272 272 256 243 238 232 230 232 230 225 225 228 223
241 245 245 249 250 248 247 247 249 251 249 248 250 252 249 250 256 262 263 260 259 260 260 260 263 263 256 250 244 246 246 237 249 252 246 243 239 236 238 235 231 230 229 214
247 248 246 247 248 248 250 250 250 250 248 247 251 248 241 242 250 257 260 259 258 259 263 268 269 261 251 247 244 245 243 240 242 245 245 245 250 250 243 232 224 228 228 182
253 253 254 251 249 247 248 251 252 248 245 239 237 239 239 244 250 254 255 254 254 256 261 265 270 254 247 243 246 237 237 238 241 245 242 239 240 238 232 229 225 223 215 207
255 256 257 258 253 247 245 248 250 247 241 232 231 236 241 244 245 246 248 250 252 260 261 259 251 246 244 236 235 237 236 236 238 238 235 237 239 232 224 222 220 212 207 211
262 258 255 255 255 253 250 247 241 238 236 229 231 236 241 244 244 244 245 251 254 259 260 252 247 247 244 242 230 236 236 240 239 234 233 239 238 232 224 217 212 206 196 184
265 260 256 255 253 254 252 246 238 235 233 232 235 240 243 243 240 242 244 250 254 246 246 238 241 245 250 247 229 231 234 234 234 231 229 233 234 229 221 211 203 199 195 184
266 263 261 257 254 258 257 248 238 234 234 235 235 237 240 243 241 241 246 245 245 241 246 241 252 243 239 234 229 231 234 235 232 227 225 221 219 217 213 207 202 191 184 184
266 267 268 267 257 248 247 250 253 245 243 246 244 244 246 245 245 243 254 245 244 240 242 243 242 236 233 233 227 226 229 229 227 222 220 216 210 207 205 200 193 179 175 185
259 258 251 239 238 242 245 250 256 251 246 249 252 251 248 245 246 244 246 237 230 233 243 235 228 226 226 229 223 224 225 223 219 211 207 204 200 196 193 190 184 175 173 180
257 256 250 248 253 249 241 235 245 250 248 252 260 258 254 248 245 243 240 232 226 237 246 233 217 214 222 223 224 224 221 212 208 207 201 199 199 196 191 187 184 184 184 181
262 260 250 242 238 237 239 239 245 253 254 255 267 269 262 252 245 238 236 230 221 220 223 221 216 213 214 212 208 206 204 204 202 195 194 194 194 193 188 184 179 177 176 174